FW7110 Weather Reports


Display with metric or nautical units.
time (UTC)temp
F
wind
direction
speed
MPH
gust
MPH
rain 1hr
in
rain 24hr
in
rain mn
in
humidity
%
barometer
mb
20260906011605 78 27 1.0 6.0 0.00 0.00 0.00 85 1015.4
20260906010104 78 40 2.0 8.0 0.00 0.00 0.00 84 1015.3
20260906004607 79 119 2.0 7.0 0.00 0.00 0.00 82 1015.2
20260906003104 80 357 3.0 9.0 0.00 0.00 0.00 80 1015.0
20260906001610 82 49 2.0 7.0 0.00 0.00 0.00 78 1014.9
20260905234604 84 15 1.0 6.0 0.00 0.00 0.00 76 1015.0
20260905233104 85 25 1.0 6.0 0.00 0.00 0.00 76 1014.7
20260905231608 86 30 2.0 6.0 0.00 0.00 0.00 75 1014.5
20260905230108 87 331 3.0 7.0 0.00 0.00 0.00 74 1014.3
20260905224617 88 68 3.0 9.0 0.00 0.00 0.00 72 1014.5
20260905223116 89 92 2.0 7.0 0.00 0.00 0.00 70 1014.3
20260905221605 90 334 2.0 4.0 0.00 0.00 0.00 69 1014.4
20260905220105 91 195 3.0 7.0 0.00 0.00 0.00 66 1014.2
20260905214603 91 56 2.0 7.0 0.00 0.00 0.00 67 1014.3
20260905213105 91 31 2.0 5.0 0.00 0.00 0.00 65 1014.1
20260905211613 91 52 2.0 6.0 0.00 0.00 0.00 65 1014.2
20260905210107 91 50 1.0 6.0 0.00 0.00 0.00 66 1014.2
20260905204603 91 80 2.0 5.0 0.00 0.00 0.00 65 1014.3
20260905203103 92 68 2.0 6.0 0.00 0.00 0.00 65 1014.5
20260905201602 91 65 1.0 3.0 0.00 0.00 0.00 68 1014.5
20260905200105 91 72 1.0 4.0 0.00 0.00 0.00 67 1014.7
20260905194557 90 23 1.0 4.0 0.00 0.00 0.00 67 1014.6
20260905193107 91 109 2.0 3.0 0.00 0.00 0.00 67 1014.6
20260905191608 91 88 1.0 5.0 0.00 0.00 0.00 67 1014.8
20260905190106 91 11 2.0 5.0 0.00 0.00 0.00 66 1014.9
20260905184607 92 64 1.0 4.0 0.00 0.00 0.00 66 1015.1
20260905183106 92 30 2.0 6.0 0.00 0.00 0.00 65 1015.1
20260905181604 93 64 1.0 4.0 0.00 0.00 0.00 65 1015.2
20260905180108 92 51 2.0 5.0 0.00 0.00 0.00 67 1015.2
20260905174606 91 98 1.0 5.0 0.00 0.00 0.00 67 1015.3
20260905173130 91 46 2.0 4.0 0.00 0.00 0.00 66 1015.4
20260905171609 92 84 1.0 5.0 0.00 0.00 0.00 68 1015.5
20260905170115 92 126 1.0 4.0 0.00 0.00 0.00 66 1015.7
20260905164609 91 86 2.0 4.0 0.00 0.00 0.00 68 1015.7
20260905163127 90 75 2.0 4.0 0.00 0.00 0.00 68 1015.8
20260905161616 90 313 2.0 4.0 0.00 0.00 0.00 70 1015.9
20260905160106 91 89 2.0 4.0 0.00 0.00 0.00 68 1015.8
20260905154616 90 23 1.0 4.0 0.00 0.00 0.00 70 1015.7
20260905153105 90 60 1.0 3.0 0.00 0.00 0.00 67 1015.5
20260905151603 89 40 1.0 3.0 0.00 0.00 0.00 69 1015.5
20260905150110 89 25 1.0 4.0 0.00 0.00 0.00 66 1015.4
20260905144602 89 92 1.0 4.0 0.00 0.00 0.00 66 1015.3
20260905143109 89 42 1.0 4.0 0.00 0.00 0.00 68 1015.1
20260905141606 89 240 1.0 4.0 0.00 0.00 0.00 67 1014.9
20260905140110 88 32 1.0 4.0 0.00 0.00 0.00 66 1015.0
20260905134602 87 262 0.0 1.0 0.00 0.00 0.00 72 1014.9
20260905133106 86 0 0.0 4.0 0.00 0.00 0.00 71 1014.7
20260905131603 85 237 0.0 2.0 0.00 0.00 0.00 75 1014.9
20260905130104 83 257 0.0 2.0 0.00 0.00 0.00 80 1014.9
20260905124558 81 0 0.0 1.0 0.00 0.00 0.00 84 1014.5
20260905123109 78 0 0.0 2.0 0.00 0.00 0.00 89 1014.6
20260905121605 76 0 0.0 1.0 0.00 0.00 0.00 91 1014.5
20260905120106 75 0 0.0 1.0 0.00 0.00 0.00 92 1014.4
20260905114604 74 0 0.0 0.0 0.00 0.00 0.00 91 1014.2
20260905113101 75 0 0.0 1.0 0.00 0.00 0.00 91 1014.1
20260905111558 75 0 0.0 0.0 0.00 0.00 0.00 91 1014.0
20260905110100 75 0 0.0 1.0 0.00 0.00 0.00 91 1013.9
20260905104603 75 0 0.0 0.0 0.00 0.00 0.00 91 1014.0
20260905103107 76 0 0.0 0.0 0.00 0.00 0.00 90 1014.1
20260905101608 76 257 0.0 1.0 0.00 0.00 0.00 91 1013.9
20260905100123 76 0 0.0 0.0 0.00 0.00 0.00 91 1013.9
20260905094600 76 0 0.0 0.0 0.00 0.00 0.00 90 1014.2
20260905093103 77 0 0.0 1.0 0.00 0.00 0.00 89 1014.1
20260905091613 78 0 0.0 2.0 0.00 0.00 0.00 88 1014.1
20260905090119 78 0 1.0 3.0 0.00 0.00 0.00 88 1014.1
20260905084602 78 250 1.0 3.0 0.00 0.00 0.00 88 1014.3
20260905083114 78 252 0.0 1.0 0.00 0.00 0.00 89 1014.4
20260905081612 78 0 0.0 1.0 0.00 0.00 0.00 89 1014.3
20260905080104 78 252 0.0 1.0 0.00 0.00 0.00 89 1014.4
20260905074604 77 252 0.0 1.0 0.00 0.00 0.00 90 1014.4
20260905073111 76 0 0.0 0.0 0.00 0.00 0.00 93 1014.5
20260905071615 76 0 0.0 0.0 0.00 0.00 0.00 92 1014.6
20260905064620 76 0 0.0 0.0 0.00 0.00 0.00 92 1014.6
20260905063104 77 0 0.0 0.0 0.00 0.00 0.00 92 1014.6
20260905061610 77 0 0.0 0.0 0.00 0.00 0.00 93 1014.7
20260905060114 77 0 0.0 0.0 0.00 0.00 0.00 93 1015.0
20260905054706 77 0 0.0 0.0 0.00 0.00 0.00 92 1015.0
20260905053105 77 0 0.0 0.0 0.00 0.00 0.00 92 1014.9
20260905051603 77 0 0.0 0.0 0.00 0.00 0.00 91 1014.9
20260905050105 78 0 0.0 1.0 0.00 0.00 0.00 90 1014.8
20260905044609 78 0 0.0 0.0 0.00 0.00 0.00 90 1014.9
20260905043106 79 0 0.0 0.0 0.00 0.00 0.00 90 1014.9
20260905041604 78 0 0.0 0.0 0.00 0.00 0.00 91 1014.8
20260905040109 78 0 0.0 0.0 0.00 0.00 0.00 91 1014.6
20260905034607 78 0 0.0 0.0 0.00 0.00 0.00 91 1014.6
20260905033102 79 0 0.0 0.0 0.00 0.00 0.00 90 1014.7
20260905031600 79 0 0.0 0.0 0.00 0.00 0.00 90 1014.9
20260905030100 79 0 0.0 0.0 0.00 0.00 0.00 89 1014.6
20260905024612 79 0 0.0 0.0 0.00 0.00 0.00 88 1014.5
20260905023104 80 0 0.0 0.0 0.00 0.00 0.00 86 1014.6
20260905021610 81 0 0.0 0.0 0.00 0.00 0.00 85 1014.7
20260905020103 81 0 0.0 0.0 0.00 0.00 0.00 84 1014.7
20260905014603 82 0 0.0 0.0 0.00 0.00 0.00 83 1014.5
20260905013105 82 0 0.0 0.0 0.00 0.00 0.00 82 1014.4